Regional Weather Roundup
Issued by NWS

Home | Current Version | Previous Version | Graphics & Text | Print | Product List | Glossary Off
Versions: 1 2 3 4 5 6 7 8 9 10 11 12 13 14 15 16 17 18 19 20 21 22 23 24 25 26 27 28 29 30 31 32 33 34 35 36 37 38 39 40 41 42 43 44 45 46 47 48 49 50

000
ASUS43 KLOT 191409
RWRIL

ILLINOIS REGIONAL WEATHER ROUNDUP
NATIONAL WEATHER SERVICE CHICAGO/ROMEOVILLE IL
900 AM CDT THU OCT 19 2017

NOTE: "FAIR" INDICATES FEW OR NO CLOUDS BELOW 12,000 FEET WITH NO
SIGNIFICANT WEATHER AND/OR OBSTRUCTIONS TO VISIBILITY.

* THESE STATIONS ARE NOT UNDER NWS QUALITY CONTROL. THEY ALSO MAY NOT
  REPORT WEATHER SUCH AS PRECIPITATION OR FOG.

ILZ001-002-007-009-015-016-024-191500-
NORTHWEST ILLINOIS

CITY           SKY/WX    TMP DP  RH WIND       PRES   REMARKS
MOLINE         SUNNY     52  47  83 CALM      30.15R
STERLING*      MOSUNNY   51  48  89 CALM        N/A
SAVANNA*       CLOUDY    48  47  95 CALM      30.16R
$$

ILZ003-004-008-010-011-017-018-191500-
NORTH CENTRAL ILLINOIS

CITY           SKY/WX    TMP DP  RH WIND       PRES   REMARKS
ROCKFORD       PTSUNNY   49  46  90 S3        30.18R
FREEPORT*      CLOUDY    50  45  82 CALM      30.17R
ROCHELLE*      MOSUNNY   50  47  90 CALM      30.17R
DE KALB*       CLOUDY    55  44  67 CALM      30.18R
PERU*          SUNNY     54  47  77 CALM      30.18R
$$

ILZ005-006-012>014-019>023-191500-
NORTHEAST ILLINOIS

CITY           SKY/WX    TMP DP  RH WIND       PRES   REMARKS
CHICAGO-OHARE  CLOUDY    58  41  53 NW5       30.16R
CHICAGO-MIDWAY PTSUNNY   58  43  57 N6        30.16R
AURORA         CLOUDY    52  47  83 CALM      30.18R
LANSING*       SUNNY     55  50  83 W3        30.17R
JOLIET*        MOSUNNY   56  49  78 NW3       30.17R
WAUKEGAN       MOSUNNY   57  40  52 CALM      30.15R
DUPAGE AIRPORT MOSUNNY   54  48  80 CALM      30.16R
KANKAKEE*      SUNNY     56  48  75 W6        30.18R
WHEELING       MOSUNNY   58  44  60 CALM      30.17R
MORRIS*        SUNNY     56  48  76 CALM      30.17R
ROMEOVILLE*    MOSUNNY  N/A N/A N/A CALM      30.17R
NORTHERLY ISL    N/A     60  26  27 N12         N/A
$$

LMZ740>746-191500-
SOUTHERN LAKE MICHIGAN

STATION/POSITION SKY/WX   TEMP    WIND        PRES    VSBY  WAVE
                          AIR SEA DIR/SP/G                  HT/PER
                          (F)     (DEG/KT/KT) (MB)    (MI)  (FT/S)
SOUTHERN BUOY              59 60  340/ 12/ 14 1020.5R         3/ 4
WILMETTE HARBOR            57 57  300/  6/ 10   N/A           1
HARRISON CRIB              58     320/  8/  9   N/A
BURNHAM HARBOR             60     330/  7/ 10   N/A
CALUMET HARBOR             58     290/  4/  7 1020.6R
BURNS HARBOR               56     240/  7/  9 1021.3R
MICHIGAN CITY              56     230/ 12/ 13   N/A
MICHIGAN CITY 6N           57 57  270/  8/ 10   N/A           2/ 3
ST. JOSEPH                 60 58  340/ 12/ 16 1021.1          3/ 4
$$

ILZ025>027-034>036-040-047-049-050-058-095>099-191500-
WEST-CENTRAL ILLINOIS

CITY           SKY/WX    TMP DP  RH WIND       PRES   REMARKS
QUINCY         SUNNY     58  48  69 SW7       30.15R
GALESBURG*     SUNNY     60  55  83 CALM      30.17
MACOMB*        SUNNY     53  48  85 CALM      30.18R
JACKSONVILLE*  SUNNY     59  49  68 SW7       30.16R
PITTSFIELD*    SUNNY     60  51  72 SW6       30.17R
$$

ILZ028>032-037-038-041>044-048-051>054-059>061-191500-
CENTRAL ILLINOIS

CITY           SKY/WX    TMP DP  RH WIND       PRES   REMARKS
PONTIAC        SUNNY     56  52  85 W3        30.18R
BLOOMINGTON    SUNNY     57  49  74 W8        30.18R
DECATUR        SUNNY     58  49  72 SW9       30.18R
PEORIA         SUNNY     55  50  83 CALM      30.17R
LACON*         SUNNY     55  49  78 CALM      30.16R
LINCOLN*       SUNNY     56  51  83 CALM      30.17R
SPRINGFIELD    SUNNY     60  51  72 SW7       30.16R
TAYLORVILLE    SUNNY     58  49  72 SW7       30.18R
$$

ILZ033-039-045-046-055>057-062-063-191500-
EAST-CENTRAL ILLINOIS

CITY           SKY/WX    TMP DP  RH WIND       PRES   REMARKS
CHAMPAIGN      SUNNY     56  49  77 SW9       30.18R
DANVILLE*      SUNNY     55  48  77 SW8       30.16R
RANTOUL*       SUNNY     58  52  79 SW8       30.17R
MATTOON        SUNNY     56  50  80 SW10      30.18R
PARIS*         SUNNY     57  50  78 SW9       30.20R
$$

ILZ079-100>102-191500-
SOUTHWEST ILLINOIS

CITY           SKY/WX    TMP DP  RH WIND       PRES   REMARKS
ALTON          SUNNY     59  52  77 SW8       30.19R
CAHOKIA*       SUNNY     60  50  69 CALM      30.19R
SPARTA*        SUNNY     58  48  69 S6        30.22R
$$

ILZ064>066-069>071-074>076-080>082-084>086-088>090-092>094-191500-
SOUTH-CENTRAL ILLINOIS

CITY           SKY/WX    TMP DP  RH WIND       PRES   REMARKS
CARBONDALE     SUNNY     60  51  72 SW8       30.23R
CAIRO*         SUNNY     57  49  77 S3        30.26R
EFFINGHAM*     SUNNY     56  51  82 S6        30.21R
MARION         SUNNY     61  50  67 S12       30.24R
MT. VERNON     SUNNY     57  52  83 SW6       30.22R
CENTRALIA*     SUNNY     59  51  75 S5        30.20R
SALEM*         SUNNY     59  49  69 SW7       30.21R
METROPOLIS*    SUNNY     58  49  72 S3        30.27R
$$

ILZ067-068-072-073-078-083-087-091-191500-
SOUTHEAST ILLINOIS

CITY           SKY/WX    TMP DP  RH WIND       PRES   REMARKS
LAWRENCEVILLE  SUNNY     56  50  80 S9        30.22R
FLORA*         SUNNY     58  51  78 SW8       30.21R
FAIRFIELD*     SUNNY     56  49  77 S5        30.21R
HARRISBURG*    SUNNY     56  51  81 SW7       30.24R
ROBINSON*      SUNNY     56  50  79 S6        30.22R
CARMI*         SUNNY     56  51  80 S7        30.23R
$$

ABBREVIATIONS USED IN REMARKS
   TC - TEMPERATURE IN CELSIUS
  WCI - WIND CHILL INDEX
   HX - HEAT INDEX
  VSB - VISIBILITY
$$





USA.gov is the U.S. government's official web portal to all federal, state and local government web resources and services.